This demonstration page uses our WeatherBlox Daily Observations layout. Learn more.

Left ArrowRight Arrow

Hourly Observations for June 20, 2021

Temp ( °F °C ) Dew Point ( °F °C ) Humidity (%) Winds ( mph kmh ) Pressure ( in mb ) Visibility ( mi km ) Precip ( " mm )
12:53 am 00:53 Clear 83 28.3 54 12.2 37 37 SE 17 28 29.68 1005 10 16 0.00 0.00
1:53 am 01:53 Clear 81 27.2 55 12.8 41 41 SSE 16 26 29.66 1005 10 16 0.00 0.00
2:53 am 02:53 Clear 79 26.1 56 13.3 45 45 SE 13 20 29.66 1004 10 16 0.00 0.00
3:53 am 03:53 Clear 78 25.6 56 13.3 47 47 SE 16 26 29.65 1004 10 16 0.00 0.00
4:53 am 04:53 Clear 76 24.4 56 13.3 50 50 SE 14 22 29.65 1004 10 16 0.00 0.00
5:53 am 05:53 Clear 75 23.9 58 14.4 55 55 SE 14 22 29.64 1004 10 16 0.00 0.00
6:53 am 06:53 Sunny 73 22.8 59 15 62 62 SE 12 19 29.66 1004 10 16 0.00 0.00
7:53 am 07:53 Sunny 74 23.3 60 15.6 62 62 SE 14 22 29.66 1004 10 16 0.00 0.00
8:53 am 08:53 Sunny 78 25.6 60 15.6 54 54 SE 15 24 29.66 1004 10 16 0.00 0.00
9:53 am 09:53 Sunny 83 28.3 60 15.6 46 46 SSE 14 22 29.65 1004 10 16 0.00 0.00
10:53 am 10:53 Sunny 88 31.1 59 15 38 38 SSE 12 19 29.64 1004 10 16 0.00 0.00
11:53 am 11:53 Sunny 94 34.4 56 13.3 28 28 S 8 13 29.62 1003 10 16 0.00 0.00
12:53 pm 12:53 Sunny 97 36.1 51 10.6 21 21 SW 9 15 29.60 1003 10 16 0.00 0.00
1:53 pm 13:53 Sunny 102 38.9 48 8.9 16 16 SSW 14 22 29.57 1001 10 16 0.00 0.00
2:53 pm 14:53 Sunny 103 39.4 47 8.3 15 15 SSE 3 6 29.55 1001 10 16 0.00 0.00
3:53 pm 15:53 Sunny 105 40.6 47 8.3 14 14 Calm 29.52 1000 10 16 0.00 0.00
4:53 pm 16:53 Sunny 107 41.7 46 7.8 13 13 Calm 29.50 999 10 16 0.00 0.00
5:53 pm 17:53 Sunny 109 42.8 46 7.8 12 12 VRB 5 7 29.47 998 10 16 0.00 0.00
6:53 pm 18:53 Sunny 107 41.7 46 7.8 13 13 Calm 29.47 998 10 16 0.00 0.00
7:53 pm 19:53 Sunny 106 41.1 45 7.2 13 13 SSE 6 9 29.48 998 10 16 0.00 0.00
8:53 pm 20:53 Sunny 101 38.3 45 7.2 15 15 SE 8 13 29.49 999 10 16 0.00 0.00
9:53 pm 21:53 Clear 97 36.1 56 13.3 25 25 SE 21 33 29.51 999 10 16 0.00 0.00
10:53 pm 22:53 Clear 94 34.4 57 13.9 29 29 SSE 21 33 29.54 1000 10 16 0.00 0.00
11:53 pm 23:53 Clear 93 33.9 59 15 32 32 SSW 15 24 29.61 1003 10 16 0.00 0.00

Powered by AerisWeather